Torna al catalogo

STARLINK-34329

AttivoComunicazioniVLEO
NORAD 64256·PAYLOAD·🇺🇸 United States

Lanciato Jun 4, 2025 da Vandenberg Space Force Base

Loading…

Prossimi Passaggi (prossime 24 ore)

TLE

AggiornatoSource: CelesTrak SupGP

Epoca: Sep 15, 2026, 03:51 UTC

1 64256C 25120A   26258.16090278  .00026460  00000+0  78152-3 0  2580
2 64256  53.1596 310.8991 0001281  84.2804 348.8936 15.34386680    19

Traccia STARLINK-34329 in tempo reale con AllMySat

Download on the App Store